User: anonymous   Login
Location: Ostrava
(49.8330°N, 18.2830°E)
Time: 09:13:57
(UTC+02:00)
Language:

Cosmos 2219 Rocket - Orbit

View from above orbital plane
View from above orbital plane
View from above satellite
View from above satellite

Ground track
Ground track

The orbit data is extracted from the following two-line orbital elements,

1 22220U 92076B   17149.96361733 +.00000160 +00000-0 +10467-3 0  9990
2 22220 071.0001 097.6089 0014814 296.2603 124.2133 14.16416773267869
Epoch (UTC): 29 May 2017 23:07:36
Eccentricity: 0.0014814
inclination: 71.0001°
perigee height: 827 km
apogee height: 848 km
right ascension of ascending node: 97.6089°
argument of perigee: 296.2603°
revolutions per day: 14.16416773
mean anomaly at epoch: 124.2133°
orbit number at epoch: 26786

The dashed part of the orbit path shows where the satellite is in the earth's shadow,  

DLR